Time,TemperatureF,DewpointF,PressureIn,WindDirection,WindDirectionDegrees,WindSpeedMPH,WindSpeedGustMPH,Humidity,HourlyPrecipIn,Conditions,Clouds,dailyrainin,SoftwareType,DateUTC
2013-03-02 00:06:00,39.7,30.0,29.92,NW,310,1.0,1.0,68,0.00,,,0.00,weatherlink.com 1.10,2013-03-02 05:06:00,
2013-03-02 00:24:00,39.6,31.0,29.91,NW,310,0.0,1.0,70,0.00,,,0.00,weatherlink.com 1.10,2013-03-02 05:24:00,
2013-03-02 00:39:00,39.4,30.0,29.91,NW,310,0.0,1.0,70,0.00,,,0.00,weatherlink.com 1.10,2013-03-02 05:39:00,
2013-03-02 00:53:00,39.2,31.0,29.91,NW,310,0.0,0.0,73,0.00,,,0.00,weatherlink.com 1.10,2013-03-02 05:53:00,
2013-03-02 01:08:00,39.0,31.0,29.91,NW,310,0.0,1.0,73,0.00,,,0.00,weatherlink.com 1.10,2013-03-02 06:08:00,
2013-03-02 01:23:00,38.8,31.0,29.91,NW,310,0.0,1.0,74,0.00,,,0.00,weatherlink.com 1.10,2013-03-02 06:23:00,
2013-03-02 01:38:00,38.6,31.0,29.91,NW,310,1.0,1.0,74,0.00,,,0.00,weatherlink.com 1.10,2013-03-02 06:38:00,
2013-03-02 01:53:00,38.4,31.0,29.91,NW,310,0.0,1.0,75,0.00,,,0.00,weatherlink.com 1.10,2013-03-02 06:53:00,
2013-03-02 02:08:00,38.2,31.0,29.90,NW,310,0.0,0.0,75,0.00,,,0.00,weatherlink.com 1.10,2013-03-02 07:08:00,
2013-03-02 02:38:00,37.8,30.0,29.89,NW,310,0.0,0.0,73,0.00,,,0.00,weatherlink.com 1.10,2013-03-02 07:38:00,
2013-03-02 02:53:00,37.7,31.0,29.89,NW,310,0.0,1.0,77,0.00,,,0.00,weatherlink.com 1.10,2013-03-02 07:53:00,
2013-03-02 03:08:00,37.7,30.0,29.89,NW,310,0.0,0.0,75,0.00,,,0.00,weatherlink.com 1.10,2013-03-02 08:08:00,
2013-03-02 03:23:00,37.6,31.0,29.88,NW,310,0.0,0.0,77,0.00,,,0.00,weatherlink.com 1.10,2013-03-02 08:23:00,
2013-03-02 03:38:00,37.5,31.0,29.88,NW,310,0.0,1.0,76,0.00,,,0.00,weatherlink.com 1.10,2013-03-02 08:38:00,
2013-03-02 03:53:00,37.4,31.0,29.88,NW,310,0.0,0.0,77,0.00,,,0.00,weatherlink.com 1.10,2013-03-02 08:53:00,
2013-03-02 04:08:00,37.5,32.0,29.88,NW,310,1.0,1.0,80,0.00,,,0.00,weatherlink.com 1.10,2013-03-02 09:08:00,
2013-03-02 04:23:00,37.5,32.0,29.88,NW,310,0.0,1.0,79,0.00,,,0.00,weatherlink.com 1.10,2013-03-02 09:23:00,
2013-03-02 04:38:00,37.5,33.0,29.88,NW,310,1.0,2.0,83,0.00,,,0.00,weatherlink.com 1.10,2013-03-02 09:38:00,
2013-03-02 04:53:00,37.5,32.0,29.88,NW,310,1.0,1.0,80,0.00,,,0.00,weatherlink.com 1.10,2013-03-02 09:53:00,
2013-03-02 05:09:00,37.5,32.0,29.88,NNW,328,0.0,2.0,80,0.00,,,0.00,weatherlink.com 1.10,2013-03-02 10:09:00,
2013-03-02 05:23:00,37.7,32.0,29.88,NNW,338,0.0,2.0,81,0.00,,,0.00,weatherlink.com 1.10,2013-03-02 10:23:00,
2013-03-02 05:38:00,37.7,33.0,29.88,NNE,21,1.0,4.0,82,0.00,,,0.00,weatherlink.com 1.10,2013-03-02 10:38:00,
2013-03-02 05:53:00,37.7,32.0,29.89,NNE,27,1.0,2.0,81,0.00,,,0.00,weatherlink.com 1.10,2013-03-02 10:53:00,
2013-03-02 06:08:00,37.8,32.0,29.89,NNE,27,0.0,2.0,81,0.00,,,0.00,weatherlink.com 1.10,2013-03-02 11:08:00,
2013-03-02 06:23:00,37.8,33.0,29.89,East,86,0.0,2.0,83,0.00,,,0.00,weatherlink.com 1.10,2013-03-02 11:23:00,
2013-03-02 06:39:00,37.4,33.0,29.89,SE,138,0.0,2.0,84,0.00,,,0.00,weatherlink.com 1.10,2013-03-02 11:39:00,
2013-03-02 06:54:00,36.8,33.0,29.89,SE,138,0.0,1.0,86,0.00,,,0.00,weatherlink.com 1.10,2013-03-02 11:54:00,
2013-03-02 07:09:00,36.4,33.0,29.89,SE,138,0.0,2.0,87,0.00,,,0.00,weatherlink.com 1.10,2013-03-02 12:09:00,
2013-03-02 07:24:00,36.2,33.0,29.89,SE,138,0.0,1.0,89,0.00,,,0.00,weatherlink.com 1.10,2013-03-02 12:24:00,
2013-03-02 07:39:00,36.2,34.0,29.90,SE,138,1.0,1.0,90,0.00,,,0.00,weatherlink.com 1.10,2013-03-02 12:39:00,
2013-03-02 07:54:00,36.4,34.0,29.90,SE,138,0.0,1.0,90,0.00,,,0.00,weatherlink.com 1.10,2013-03-02 12:54:00,
2013-03-02 08:09:00,36.6,34.0,29.91,East,83,0.0,2.0,89,0.00,,,0.00,weatherlink.com 1.10,2013-03-02 13:09:00,
2013-03-02 08:24:00,36.7,34.0,29.91,NNE,18,2.0,3.0,89,0.00,,,0.00,weatherlink.com 1.10,2013-03-02 13:24:00,
2013-03-02 08:39:00,36.7,34.0,29.91,NNE,24,3.0,3.0,90,0.00,,,0.00,weatherlink.com 1.10,2013-03-02 13:39:00,
2013-03-02 08:55:00,36.4,34.0,29.91,NNW,346,3.0,4.0,90,0.01,,,0.01,weatherlink.com 1.10,2013-03-02 13:55:00,
2013-03-02 09:09:00,36.2,34.0,29.91,NNE,29,2.0,3.0,92,0.01,,,0.01,weatherlink.com 1.10,2013-03-02 14:09:00,
2013-03-02 09:24:00,36.1,34.0,29.91,NNE,32,2.0,3.0,92,0.02,,,0.02,weatherlink.com 1.10,2013-03-02 14:24:00,
2013-03-02 09:54:00,35.5,33.0,29.91,NNE,32,1.0,2.0,92,0.04,,,0.05,weatherlink.com 1.10,2013-03-02 14:54:00,
2013-03-02 10:09:00,35.3,34.0,29.91,NNE,21,0.0,2.0,93,0.05,,,0.06,weatherlink.com 1.10,2013-03-02 15:09:00,
2013-03-02 10:24:00,35.3,34.0,29.91,North,355,0.0,3.0,94,0.04,,,0.06,weatherlink.com 1.10,2013-03-02 15:24:00,
2013-03-02 10:39:00,35.9,35.0,29.91,NNW,346,1.0,2.0,95,0.04,,,0.07,weatherlink.com 1.10,2013-03-02 15:39:00,
2013-03-02 10:54:00,37.3,36.0,29.90,SSE,161,1.0,3.0,96,0.03,,,0.08,weatherlink.com 1.10,2013-03-02 15:54:00,
2013-03-02 11:09:00,39.6,38.0,29.91,SE,138,2.0,3.0,94,0.02,,,0.08,weatherlink.com 1.10,2013-03-02 16:09:00,
2013-03-02 11:24:00,40.4,39.0,29.91,SSW,194,1.0,3.0,94,0.02,,,0.08,weatherlink.com 1.10,2013-03-02 16:24:00,
2013-03-02 11:39:00,40.7,38.0,29.90,SW,229,2.0,4.0,88,0.01,,,0.08,weatherlink.com 1.10,2013-03-02 16:39:00,
2013-03-02 11:54:00,41.7,38.0,29.90,SSE,165,3.0,4.0,85,0.00,,,0.08,weatherlink.com 1.10,2013-03-02 16:54:00,
2013-03-02 12:09:00,42.0,37.0,29.89,SW,218,1.0,5.0,83,0.00,,,0.08,weatherlink.com 1.10,2013-03-02 17:09:00,
2013-03-02 12:24:00,41.7,37.0,29.88,WSW,243,2.0,5.0,84,0.00,,,0.08,weatherlink.com 1.10,2013-03-02 17:24:00,
2013-03-02 12:40:00,41.9,36.0,29.88,West,278,4.0,5.0,80,0.00,,,0.08,weatherlink.com 1.10,2013-03-02 17:40:00,
2013-03-02 12:54:00,41.9,35.0,29.87,WSW,240,3.0,4.0,76,0.00,,,0.08,weatherlink.com 1.10,2013-03-02 17:54:00,
2013-03-02 13:09:00,42.7,38.0,29.86,West,263,5.0,6.0,82,0.00,,,0.08,weatherlink.com 1.10,2013-03-02 18:09:00,
2013-03-02 13:24:00,42.5,35.0,29.86,NW,317,2.0,5.0,74,0.00,,,0.08,weatherlink.com 1.10,2013-03-02 18:24:00,
2013-03-02 13:39:00,42.5,36.0,29.86,SW,218,2.0,3.0,77,0.00,,,0.08,weatherlink.com 1.10,2013-03-02 18:39:00,
2013-03-02 13:54:00,42.9,37.0,29.85,South,172,3.0,5.0,79,0.00,,,0.08,weatherlink.com 1.10,2013-03-02 18:54:00,
2013-03-02 14:09:00,43.2,36.0,29.85,WSW,248,2.0,5.0,76,0.00,,,0.08,weatherlink.com 1.10,2013-03-02 19:09:00,
2013-03-02 14:24:00,43.1,35.0,29.85,West,267,7.0,8.0,72,0.00,,,0.08,weatherlink.com 1.10,2013-03-02 19:24:00,
2013-03-02 14:39:00,42.7,35.0,29.85,SW,235,3.0,10.0,74,0.00,,,0.08,weatherlink.com 1.10,2013-03-02 19:39:00,
2013-03-02 14:54:00,41.3,34.0,29.85,SSW,202,4.0,11.0,76,0.00,,,0.08,weatherlink.com 1.10,2013-03-02 19:54:00,
2013-03-02 15:09:00,40.9,35.0,29.84,SSW,208,1.0,7.0,79,0.00,,,0.08,weatherlink.com 1.10,2013-03-02 20:09:00,
2013-03-02 15:24:00,41.9,36.0,29.84,SW,221,4.0,4.0,79,0.00,,,0.08,weatherlink.com 1.10,2013-03-02 20:24:00,
2013-03-02 15:39:00,44.6,35.0,29.83,NW,317,2.0,6.0,69,0.00,,,0.08,weatherlink.com 1.10,2013-03-02 20:39:00,
2013-03-02 15:55:00,46.3,34.0,29.83,WSW,243,5.0,10.0,63,0.00,,,0.08,weatherlink.com 1.10,2013-03-02 20:55:00,
2013-03-02 16:10:00,47.3,32.0,29.83,NW,318,3.0,10.0,56,0.00,,,0.08,weatherlink.com 1.10,2013-03-02 21:10:00,
2013-03-02 16:25:00,45.8,34.0,29.83,WNW,291,2.0,7.0,64,0.00,,,0.08,weatherlink.com 1.10,2013-03-02 21:25:00,
2013-03-02 16:40:00,44.4,32.0,29.84,NNE,29,1.0,8.0,61,0.00,,,0.08,weatherlink.com 1.10,2013-03-02 21:40:00,
2013-03-02 16:55:00,43.8,30.0,29.85,NNE,32,5.0,7.0,59,0.00,,,0.08,weatherlink.com 1.10,2013-03-02 21:55:00,
2013-03-02 17:10:00,43.2,29.0,29.85,NNW,338,3.0,10.0,57,0.00,,,0.08,weatherlink.com 1.10,2013-03-02 22:10:00,
2013-03-02 17:26:00,43.2,28.0,29.85,WNW,290,1.0,7.0,55,0.00,,,0.08,weatherlink.com 1.10,2013-03-02 22:26:00,
2013-03-02 17:40:00,43.3,27.0,29.86,NNW,345,3.0,8.0,53,0.00,,,0.08,weatherlink.com 1.10,2013-03-02 22:40:00,
2013-03-02 17:55:00,43.2,26.0,29.86,NNE,26,5.0,9.0,51,0.00,,,0.08,weatherlink.com 1.10,2013-03-02 22:55:00,
2013-03-02 18:10:00,42.5,26.0,29.87,North,5,3.0,10.0,52,0.00,,,0.08,weatherlink.com 1.10,2013-03-02 23:10:00,
2013-03-02 18:25:00,41.7,26.0,29.88,North,350,1.0,13.0,54,0.00,,,0.08,weatherlink.com 1.10,2013-03-02 23:25:00,
2013-03-02 18:40:00,40.9,26.0,29.89,NNW,346,4.0,10.0,55,0.00,,,0.08,weatherlink.com 1.10,2013-03-02 23:40:00,
2013-03-02 18:55:00,40.7,25.0,29.89,WNW,296,5.0,11.0,55,0.00,,,0.08,weatherlink.com 1.10,2013-03-02 23:55:00,
2013-03-02 19:10:00,40.5,25.0,29.90,North,360,6.0,11.0,54,0.00,,,0.08,weatherlink.com 1.10,2013-03-03 00:10:00,
2013-03-02 19:25:00,40.2,25.0,29.90,North,355,8.0,12.0,55,0.00,,,0.08,weatherlink.com 1.10,2013-03-03 00:25:00,
2013-03-02 19:40:00,39.9,24.0,29.90,North,355,5.0,10.0,54,0.00,,,0.08,weatherlink.com 1.10,2013-03-03 00:40:00,
2013-03-02 19:55:00,39.1,24.0,29.91,North,355,8.0,11.0,54,0.00,,,0.08,weatherlink.com 1.10,2013-03-03 00:55:00,
2013-03-02 20:10:00,38.4,23.0,29.91,NNE,26,3.0,13.0,54,0.00,,,0.08,weatherlink.com 1.10,2013-03-03 01:10:00,
2013-03-02 20:25:00,37.9,22.0,29.91,NNW,344,3.0,15.0,54,0.00,,,0.08,weatherlink.com 1.10,2013-03-03 01:25:00,
2013-03-02 20:40:00,37.3,23.0,29.92,NW,318,5.0,12.0,56,0.00,,,0.08,weatherlink.com 1.10,2013-03-03 01:40:00,
2013-03-02 20:55:00,36.8,22.0,29.93,North,355,2.0,8.0,56,0.00,,,0.08,weatherlink.com 1.10,2013-03-03 01:55:00,
2013-03-02 21:10:00,36.2,22.0,29.93,North,9,3.0,6.0,57,0.00,,,0.08,weatherlink.com 1.10,2013-03-03 02:10:00,
2013-03-02 21:25:00,36.0,22.0,29.94,NNE,26,6.0,8.0,58,0.00,,,0.08,weatherlink.com 1.10,2013-03-03 02:25:00,
2013-03-02 21:41:00,35.7,22.0,29.94,North,355,2.0,6.0,59,0.00,,,0.08,weatherlink.com 1.10,2013-03-03 02:41:00,
2013-03-02 21:55:00,35.2,22.0,29.94,North,360,3.0,6.0,59,0.00,,,0.08,weatherlink.com 1.10,2013-03-03 02:55:00,
2013-03-02 22:11:00,34.7,22.0,29.94,NNE,13,3.0,4.0,60,0.00,,,0.08,weatherlink.com 1.10,2013-03-03 03:11:00,
2013-03-02 22:25:00,33.8,22.0,29.95,NNE,13,1.0,2.0,63,0.00,,,0.08,weatherlink.com 1.10,2013-03-03 03:25:00,
2013-03-02 22:40:00,32.7,22.0,29.94,NE,34,0.0,2.0,65,0.00,,,0.08,weatherlink.com 1.10,2013-03-03 03:40:00,
2013-03-02 22:55:00,31.6,23.0,29.94,NE,34,0.0,1.0,70,0.00,,,0.08,weatherlink.com 1.10,2013-03-03 03:55:00,
2013-03-02 23:10:00,30.7,23.0,29.94,NE,34,0.0,1.0,72,0.00,,,0.08,weatherlink.com 1.10,2013-03-03 04:10:00,
2013-03-02 23:25:00,30.2,23.0,29.94,NE,39,0.0,1.0,73,0.00,,,0.08,weatherlink.com 1.10,2013-03-03 04:25:00,
2013-03-02 23:40:00,29.7,23.0,29.94,NE,39,0.0,1.0,75,0.00,,,0.08,weatherlink.com 1.10,2013-03-03 04:40:00,
2013-03-02 23:55:00,29.3,22.7,29.95,NE,39,0.0,1.0,76,0.00,,,0.08,Cumulus v1.9.3,2013-03-03 04:55:00,